Location: Spruce Knob
(38.6995°N, 79.5330°W)
Time: 20:14:00
(UTC-04:00)

A-11 Canister half - Pass Details

Date: 05 February 2022
Orbit: 1513 x 1686 km, 47.2° (Epoch: 26 May)

Event Time Altitude Azimuth Distance (km) Brightness Sun altitude
Rises 11:51:11 0° 197° (SSW) 4,889 12.4 34.7°
Reaches altitude 10° 11:54:50 10° 188° (S) 3,884 12.3 34.8°
Maximum altitude 12:03:07 31° 130° (SE) 2,534 11.3 35.1°
Drops below altitude 10° 12:11:10 10° 73° (ENE) 3,782 11.1 35.3°
Sets 12:14:38 0° 64° (ENE) 4,744 11.4 35.4°
